User: anonymous   Login
Location: Unspecified
(0.0000°N, 0.0000°E)
Time: 22:03:44
(UTC+00:00)
Language:

Injun/Solrad 3 - Orbit

View from above orbital plane
View from above orbital plane
View from above satellite
View from above satellite

Ground track
Ground track

The orbit data is extracted from the following two-line orbital elements,

1   117U 61015B   17289.89673602 -.00000037 +00000-0 +30988-4 0  9993
2   117 066.8114 158.5115 0079132 346.2686 013.6239 13.89815742854199
Epoch (UTC): 16 October 2017 21:31:17
Eccentricity: 0.0079132
inclination: 66.8114°
perigee height: 871 km
apogee height: 987 km
right ascension of ascending node: 158.5115°
argument of perigee: 346.2686°
revolutions per day: 13.89815742
mean anomaly at epoch: 13.6239°
orbit number at epoch: 85419

The dashed part of the orbit path shows where the satellite is in the earth's shadow,  

DLR